Orbital Elements at Epoch 2459200.5 (2020-Dec-17.0) TDB
Reference: JPL 14 (heliocentric ecliptic J2000)
Element | Value | Uncertainty (1-sigma) | Units |
e | .09019819927782761 | 7.3597e-08 | |
a | 2.257683082269293 | 1.3146e-08 | au |
q | 2.054044133708587 | 1.6565e-07 | au |
i | 3.601193369613577 | 5.5785e-06 | deg |
node | 258.4164472263605 | 0.00011673 | deg |
peri | 275.21872738987 | 0.00012091 | deg |
M | 304.8137126351816 | 3.181e-05 | deg |
tp | 2459390.442247340315 (2021-Jun-24.94224734) | 0.0001099 | TDB |
period | 1239.061591342081 3.39 | 1.0822e-05 2.963e-08 | d yr |
n | .2905424577079082 | 2.5376e-09 | deg/d |
Q | 2.461322030829999 | 1.4331e-08 | au |
|
| | Orbit Determination Parameters
Additional Information
|